Regional Weather Roundup
Issued by NWS

Home | Current Version | Previous Version | Text Only | Print | Product List | Glossary Off
Versions: 1 2 3 4 5 6 7 8 9 10 11 12 13 14 15 16 17 18 19 20 21 22 23 24 25 26 27 28 29 30 31 32 33 34 35 36 37 38 39 40 41 42 43 44 45 46 47 48 49 50

000
ASUS43 KFSD 030402
RWRSD

WEATHER ROUNDUP FOR SOUTH DAKOTA
NATIONAL WEATHER SERVICE SIOUX FALLS SD
1100 PM CDT SUN AUG 02 2015

NOTE: "FAIR" INDICATES FEW OR NO CLOUDS BELOW 12,000 FEET WITH NO
SIGNIFICANT WEATHER AND/OR OBSTRUCTIONS TO VISIBILITY.


SDZ001>005-009-010-012>017-030500-
NORTHWEST AND NORTH CENTRAL SOUTH DAKOTA

CITY           SKY/WX    TMP DP  RH WIND       PRES   REMARKS
BUFFALO          N/A     66  49  54 NE10      29.98R
FAITH            N/A     67  49  52 E10       30.01R
MOBRIDGE       CLEAR     62  57  83 N6        29.95R
$$

SDZ012>016-024>037-041>051-057-063-072>074-030500-
SOUTHWEST AND SOUTH CENTRAL SOUTH DAKOTA

CITY           SKY/WX    TMP DP  RH WIND       PRES   REMARKS
RAPID CTY ARPT CLEAR     68  53  58 E3        30.03R
PIERRE         CLEAR     65  53  65 NE8       29.95R
CUSTER         CLEAR     64  49  57 NE7       30.17R
ELLSWORTH AFB  CLEAR     73  53  50 E5        30.03R
PHILIP         CLEAR     68  56  65 NE5       29.98R
PINE RIDGE     CLEAR     66  56  70 E7        30.02R
WINNER         FAIR      70  59  68 E5        29.96R
$$

SDZ004>011-016>023-039-040-030500-
NORTHEAST SOUTH DAKOTA

CITY           SKY/WX    TMP DP  RH WIND       PRES   REMARKS
ABERDEEN       CLEAR     62  55  77 CALM      29.93R
WATERTOWN      CLEAR     64  56  75 CALM      29.94R
BROOKINGS      CLEAR     64  55  72 CALM      29.95R
SISSETON         N/A     62  53  72 W6        29.90R
$$

SDZ017-020-022-023-036>040-048>070-030500-
SOUTHEAST SOUTH DAKOTA

CITY           SKY/WX    TMP DP  RH WIND       PRES   REMARKS
SIOUX FALLS    CLEAR     66  58  75 N7        29.92R
HURON          CLEAR     66  60  81 CALM      29.92R
CHAMBERLAIN    CLEAR     71  59  65 NE3       29.96R
MITCHELL       CLEAR     67  60  78 N3        29.93R
YANKTON        CLEAR     70  61  73 N7        29.90R
$$

ABBREVIATIONS USED IN REMARKS
   TC - TEMPERATURE IN CELSIUS
  WCI - WIND CHILL INDEX
   HX - HEAT INDEX
  VSB - VISIBILITY



USA.gov is the U.S. government's official web portal to all federal, state and local government web resources and services.